This is the latest recevied weather packets stored in our database for station/object JS2QVS-13. If no packets are shown the sender has not sent any weather packets the latest 10 day(s).
| Time | Temp. | Humidity | Pressure | Rain* | Wind** | Luminosity | Snow |
|---|---|---|---|---|---|---|---|
| 1777611461 | 22.22° C | 67% | 994.1 hPa | 0 mm | - | - | - |
| 1777610861 | 22.78° C | 67% | 994.1 hPa | 0 mm | - | - | - |
| 1777610261 | 22.22° C | 69% | 994.3 hPa | 0 mm | - | - | - |
| 1777609663 | 22.22° C | 70% | 994.4 hPa | 0 mm | - | - | - |
| 1777609063 | 21.67° C | 72% | 994.6 hPa | 0 mm | - | - | - |
| 1777608463 | 21.11° C | 78% | 994.7 hPa | 0 mm | - | - | - |
| 1777607863 | 21.11° C | 80% | 994.7 hPa | 0 mm | - | - | - |
| 1777607263 | 21.11° C | 81% | 995 hPa | 0 mm | - | - | - |
| 1777606662 | 20.56° C | 84% | 995.1 hPa | 0 mm | - | - | - |
| 1777606062 | 20.56° C | 85% | 995.1 hPa | 0 mm | - | - | - |
| 1777605462 | 20.56° C | 84% | 995.4 hPa | 0 mm | - | - | - |
| 1777604863 | 20.56° C | 88% | 995.6 hPa | 0 mm | - | - | - |
| 1777604263 | 20° C | 89% | 995.9 hPa | 0.25 mm | - | - | - |
| 1777603663 | 19.44° C | 90% | 995.9 hPa | 0.25 mm | - | - | - |
| 1777603062 | 18.89° C | 92% | 996 hPa | 0.25 mm | - | - | - |
| 1777602462 | 18.33° C | 92% | 996.2 hPa | 0.51 mm | - | - | - |
| 1777601863 | 18.33° C | 93% | 996.7 hPa | 1.27 mm | - | - | - |
| 1777601262 | 17.78° C | 93% | 996.6 hPa | 2.29 mm | - | - | - |
| 1777600662 | 17.78° C | 93% | 996.9 hPa | 2.79 mm | - | - | - |
| 1777600062 | 17.22° C | 93% | 997 hPa | 3.81 mm | - | - | - |
| 1777599462 | 17.22° C | 93% | 997.3 hPa | 4.06 mm | - | - | - |
| 1777598862 | 17.22° C | 93% | 997.5 hPa | 4.83 mm | - | - | - |
| 1777598261 | 17.22° C | 93% | 997.8 hPa | 4.06 mm | - | - | - |
| 1777597662 | 16.67° C | 93% | 998 hPa | 3.05 mm | - | - | - |
| 1777597061 | 16.67° C | 92% | 998 hPa | 2.54 mm | - | - | - |
* Rain latest hour (hover to see other rain measurements)
** Current wind speed in m/s (hover to see current wind gust speed)